Date String (YYYY-MM-DD hh:mm:ss) UTC,Instrument flags,absolute air pressure of the measurement (hPa),sample flow rate (lpm),inlet stack bypass flow (lpm),air temperature of the measurement (°C),ambient temperature measured by the external sensor (°C),aerosol sample conditioner tube jacket temperature (°C),OPC LED temperature (°C),internal box temperature (°C),relative humidity of the measurement (%),span deviation,mass concentration of particles derived from Lorenz-Mie calculation of OPC scattering (μg/m³),mass concentration of particles derived from Lorenz-Mie calculation of OPC scattering (μg/m³),mass concentration of particles derived from Lorenz-Mie calculation of OPC scattering (μg/m³)
DateTimeUTC,F1_M11,P_M11,Q1_M11,Q2_M11,T1_M11,T2_M11,T3_M11,T4_M11,T5_M11,U1_M11,ZSPAN_M11,X2_M11,X0_M11,X1_M11
2023-09-28 22:00:00,SystemResetWarning,0825.2,4.99,000.00,027.8,025.9,000.0,036.2,029.6,13.7,0000.0,0005.77,0017.47,0004.75
2023-09-28 22:01:00,SystemResetWarning,0825.3,4.99,000.00,027.9,026.3,000.0,036.2,029.7,13.6,0000.0,0005.80,0018.04,0004.82
2023-09-28 22:02:00,SystemResetWarning,0825.2,5.00,000.00,027.9,026.6,000.0,036.3,029.8,13.7,0000.0,0005.83,0018.07,0004.88
2023-09-28 22:03:00,SystemResetWarning,0825.2,5.00,000.00,028.0,026.8,000.0,036.3,029.9,13.9,0000.0,0005.86,0017.91,0004.94
2023-09-28 22:04:00,SystemResetWarning,0825.2,4.98,000.00,028.0,025.9,000.0,036.3,029.8,13.6,0000.0,0005.99,0018.07,0005.01
2023-09-28 22:05:00,SystemResetWarning,0825.2,5.01,000.00,027.9,024.4,000.0,036.2,029.6,13.8,0000.0,0006.09,0017.95,0005.10
2023-09-28 22:06:00,SystemResetWarning,0825.2,5.02,000.00,027.9,024.3,000.0,036.2,029.6,13.7,0000.0,0006.22,0018.80,0005.17
2023-09-28 22:07:00,SystemResetWarning,0825.2,5.00,000.00,027.8,024.6,000.0,036.2,029.4,13.4,0000.0,0006.32,0018.67,0005.24
2023-09-28 22:08:00,SystemResetWarning,0825.2,5.00,000.00,027.8,025.0,000.0,036.2,029.5,13.5,0001.7,0006.34,0018.47,0005.29
2023-09-28 22:09:00,SystemResetWarning,0825.2,5.01,000.00,027.8,025.5,000.0,036.2,029.5,13.8,0003.3,0006.36,0017.72,0005.30
2023-09-28 22:10:00,SystemResetWarning,0825.2,5.00,000.00,027.8,025.9,000.0,036.2,029.6,13.9,0002.9,0006.32,0017.43,0005.30
2023-09-28 22:11:00,SystemResetWarning,0825.2,5.00,000.00,027.9,026.2,000.0,036.3,029.7,13.4,0002.9,0006.33,0015.82,0005.30
2023-09-28 22:12:00,SystemResetWarning,0825.3,5.00,000.00,027.9,026.6,000.0,036.3,029.8,12.9,0003.3,0006.32,0015.92,0005.29
2023-09-28 22:13:00,SystemResetWarning,0825.2,5.00,000.00,028.0,026.5,000.0,036.3,029.9,12.9,0003.1,0006.32,0015.98,0005.28
2023-09-28 22:14:00,SystemResetWarning,0825.2,4.99,000.00,027.9,025.1,000.0,036.2,029.7,13.1,0002.9,0006.29,0017.31,0005.25
2023-09-28 22:15:00,SystemResetWarning,0825.2,5.02,000.00,027.9,024.1,000.0,036.2,029.5,13.4,0002.8,0006.19,0017.16,0005.20
2023-09-28 22:16:00,SystemResetWarning,0825.3,5.01,000.00,027.8,024.3,000.0,036.1,029.5,13.2,0002.4,0006.14,0016.85,0005.14
2023-09-28 22:17:00,SystemResetWarning,0825.2,4.99,000.00,027.7,024.7,000.0,036.2,029.4,13.2,0002.4,0006.02,0017.66,0005.08
2023-09-28 22:18:00,SystemResetWarning,0825.2,5.00,000.00,027.7,025.1,000.0,036.2,029.4,13.5,0002.4,0005.94,0018.02,0005.01
2023-09-28 22:19:00,SystemResetWarning,0825.2,5.00,000.00,027.8,025.6,000.0,036.2,029.5,13.5,0000.3,0005.91,0018.46,0004.94
2023-09-28 22:20:00,SystemResetWarning,0825.2,5.00,000.00,027.8,026.0,000.0,036.2,029.6,13.3,0000.0,0005.86,0018.02,0004.89
2023-09-28 22:21:00,SystemResetWarning,0825.3,5.00,000.00,027.8,026.3,000.0,036.2,029.7,13.1,0000.0,0005.87,0017.24,0004.83
2023-09-28 22:22:00,SystemResetWarning,0825.3,5.01,000.00,027.9,026.6,000.0,036.2,029.8,13.2,0000.0,0005.87,0017.84,0004.78
2023-09-28 22:23:00,SystemResetWarning,0825.3,5.00,000.00,027.9,026.7,000.0,036.3,029.9,13.1,0000.0,0005.87,0017.65,0004.72
2023-09-28 22:24:00,SystemResetWarning,0825.3,4.98,000.00,027.9,025.4,000.0,036.2,029.7,13.1,0000.0,0005.82,0017.92,0004.67
2023-09-28 22:25:00,SystemResetWarning,0825.3,5.01,000.00,027.9,024.1,000.0,036.2,029.5,13.4,0000.0,0005.84,0017.71,0004.65
2023-09-28 22:26:00,SystemResetWarning,0825.4,5.01,000.00,027.8,024.2,000.0,036.1,029.4,13.4,0000.0,0005.88,0019.90,0004.63
2023-09-28 22:27:00,SystemResetWarning,0825.3,4.99,000.00,027.7,024.6,000.0,036.1,029.3,13.6,0000.0,0005.88,0020.12,0004.61
2023-09-28 22:28:00,SystemResetWarning,0825.4,5.00,000.00,027.7,025.0,000.0,036.2,029.4,13.8,0000.0,0005.86,0019.20,0004.58
2023-09-28 22:29:00,SystemResetWarning,0825.4,5.02,000.00,027.7,025.5,000.0,036.2,029.5,13.6,0000.0,0005.91,0019.43,0004.58
2023-09-28 22:30:00,SystemResetWarning,0825.4,4.99,000.00,027.8,025.9,000.0,036.2,029.6,13.4,0000.0,0005.93,0019.18,0004.57
2023-09-28 22:31:00,SystemResetWarning,0825.4,4.99,000.00,027.8,026.2,000.0,036.2,029.7,13.3,0000.0,0005.99,0019.13,0004.58
2023-09-28 22:32:00,SystemResetWarning,0825.4,5.00,000.00,027.9,026.5,000.0,036.2,029.8,13.3,0000.0,0005.99,0019.17,0004.58
2023-09-28 22:33:00,SystemResetWarning,0825.4,5.00,000.00,027.9,026.8,000.0,036.3,029.8,13.1,0000.0,0006.01,0019.43,0004.59
2023-09-28 22:34:00,SystemResetWarning,0825.4,4.99,000.00,028.0,026.5,000.0,036.3,029.9,13.1,0000.0,0006.03,0020.03,0004.61
2023-09-28 22:35:00,SystemResetWarning,0825.3,5.00,000.00,027.9,024.8,000.0,036.2,029.7,13.1,0000.0,0006.03,0019.28,0004.62
2023-09-28 22:36:00,SystemResetWarning,0825.3,5.00,000.00,027.9,024.1,000.0,036.2,029.5,13.1,0000.0,0006.04,0020.01,0004.64
2023-09-28 22:37:00,SystemResetWarning,0825.3,5.00,000.00,027.8,024.4,000.0,036.1,029.4,13.2,0000.0,0006.00,0018.42,0004.65
2023-09-28 22:38:00,SystemResetWarning,0825.3,5.01,000.00,027.7,024.7,000.0,036.2,029.4,13.3,0000.0,0006.01,0017.56,0004.66
2023-09-28 22:39:00,SystemResetWarning,0825.3,5.00,000.00,027.7,025.1,000.0,036.2,029.4,13.3,0000.0,0006.09,0017.47,0004.68
2023-09-28 22:40:00,SystemResetWarning,0825.3,5.00,000.00,027.8,025.6,000.0,036.2,029.5,13.6,0000.0,0006.10,0017.01,0004.71
2023-09-28 22:41:00,SystemResetWarning,0825.3,5.00,000.00,027.8,026.0,000.0,036.2,029.6,13.4,0000.0,0006.08,0016.84,0004.73
2023-09-28 22:42:00,SystemResetWarning,0825.3,5.00,000.00,027.8,026.3,000.0,036.2,029.7,13.7,0000.0,0006.08,0017.49,0004.72
2023-09-28 22:43:00,SystemResetWarning,0825.3,5.00,000.00,027.9,026.6,000.0,036.2,029.8,13.8,0000.0,0006.06,0017.91,0004.71
2023-09-28 22:44:00,SystemResetWarning,0825.3,4.99,000.00,027.9,026.8,000.0,036.3,029.9,13.4,0000.0,0006.10,0019.16,0004.70
2023-09-28 22:45:00,SystemResetWarning,0825.3,4.98,000.00,028.0,026.0,000.0,036.3,029.8,13.4,0000.0,0006.11,0019.25,0004.69
2023-09-28 22:46:00,SystemResetWarning,0825.4,5.00,000.00,027.9,024.4,000.0,036.2,029.6,13.4,0000.0,0006.15,0021.51,0004.69
2023-09-28 22:47:00,SystemResetWarning,0825.3,5.00,000.00,027.9,024.2,000.0,036.2,029.5,13.7,0000.0,0006.22,0022.13,0004.68
2023-09-28 22:48:00,SystemResetWarning,0825.4,5.02,000.00,027.8,024.5,000.0,036.2,029.4,13.9,0000.0,0006.15,0021.39,0004.67
2023-09-28 22:49:00,SystemResetWarning,0825.3,5.00,000.00,027.7,024.9,000.0,036.2,029.4,13.9,0000.0,0006.17,0022.06,0004.66
2023-09-28 22:50:00,SystemResetWarning,0825.3,4.99,000.00,027.7,025.3,000.0,036.2,029.4,13.7,0000.0,0006.16,0022.91,0004.66
2023-09-28 22:51:00,SystemResetWarning,0825.3,5.00,000.00,027.8,025.7,000.0,036.2,029.5,13.4,0000.0,0006.16,0023.32,0004.65
2023-09-28 22:52:00,SystemResetWarning,0825.3,5.01,000.00,027.8,026.1,000.0,036.2,029.6,13.6,0000.0,0006.17,0023.87,0004.65
2023-09-28 22:53:00,SystemResetWarning,0825.3,5.01,000.00,027.9,026.4,000.0,036.2,029.7,13.7,0000.0,0006.17,0024.33,0004.66
2023-09-28 22:54:00,SystemResetWarning,0825.3,5.00,000.00,027.9,026.7,000.0,036.2,029.8,13.6,0000.0,0006.24,0024.60,0004.67
2023-09-28 22:55:00,SystemResetWarning,0825.2,5.00,000.00,028.0,026.9,000.0,036.3,029.9,14.1,0000.0,0006.24,0023.30,0004.68
2023-09-28 22:56:00,SystemResetWarning,0825.2,4.99,000.00,028.0,026.4,000.0,036.3,029.9,14.4,0000.0,0006.20,0022.04,0004.68
2023-09-28 22:57:00,SystemResetWarning,0825.2,5.01,000.00,028.0,024.7,000.0,036.2,029.7,14.5,0000.0,0006.25,0019.83,0004.69
2023-09-28 22:58:00,SystemResetWarning,0825.2,5.01,000.00,027.9,024.2,000.0,036.2,029.6,14.4,0000.0,0006.21,0017.98,0004.72
2023-09-28 22:59:00,SystemResetWarning,0825.2,4.99,000.00,027.8,024.5,000.0,036.2,029.4,14.2,0000.0,0006.27,0018.32,0004.71
